Flag for Tajikistan Weather past 2 weeks in Dushanbe, Tajikistan

Now
73 °F

Passing clouds.


Feels Like: 77 °F
Forecast: 63 / 89 °F
Wind: 3 mph from East

Location: Dushanbe Airport

Current Time: Jul 29, 2015 at 3:53:35 AM

Latest Report: Jul 29, 2015 at 2:00 AM


Visibility: 5 mi

Pressure: 29.77 "Hg (27.04 "Hg at 832m altitude)

Humidity: 57%

Dew point: 57 °F

Location of DushanbeLocation

Historic Weather in Dushanbe — Graph

°F

Dushanbe temperature yesterday

Maximum temperature yesterday: 84 °F (at 4:30 PM)
Minimum temperature yesterday: 73 °F (at 3:00 AM)
Average temperature yesterday: 78 °F

Past Weeks' High & Low Weather Summary

 TemperatureHumidityPressure
High104 °F (Jul 16, 2:00 PM)73% (Jul 23, 5:30 AM)29.95 "Hg (Jul 23, 5:30 AM)
Low70 °F (Jul 23, 5:00 AM)15% (Jul 15, 2:30 PM)29.47 "Hg (Jul 16, 2:30 PM)
Average85 °F42%29.70 "Hg
* Reported Jul 14 2:00 AM — Jul 29 2:00 AM, Dushanbe, Weather by CustomWeather, © 2015

Note: Actual official high and low records may vary slightly from our data, if they occured in-between our weather recording intervals... More about our weather records

Advertising

Dushanbe weather history for previous 24 hours

 ConditionsComfort  
Time TempWeatherWind HumidityBarometerVisibility
2:00 AM
Wed, Jul 29
73 °FPassing clouds.3 mph57%29.77 "Hg5 mi
1:30 AM73 °FPassing clouds.3 mph57%29.77 "HgN/A
1:00 AM75 °FPassing clouds.1 mph54%29.77 "HgN/A
12:30 AM75 °FPassing clouds.3 mph50%29.77 "HgN/A
12:00 AM75 °FPassing clouds.1 mph54%29.77 "HgN/A
11:30 PM
Tue, Jul 28
75 °FPassing clouds.3 mph50%29.77 "HgN/A
11:00 PM75 °FPassing clouds.1 mph54%29.80 "HgN/A
10:30 PM73 °FPassing clouds.3 mph61%29.77 "HgN/A
10:00 PM75 °FPassing clouds.8 mph54%29.80 "HgN/A
9:30 PM77 °FPassing clouds.6 mph47%29.77 "HgN/A
9:00 PM77 °FPassing clouds.6 mph47%29.77 "HgN/A
8:30 PM79 °FPassing clouds.6 mph45%29.80 "HgN/A
8:00 PM79 °FPassing clouds.6 mph45%29.77 "HgN/A
7:30 PM79 °FScattered clouds.3 mph45%29.80 "HgN/A
7:00 PM81 °FScattered clouds.3 mph42%29.80 "HgN/A
6:30 PM82 °FPassing clouds.3 mph37%29.77 "HgN/A
6:00 PM82 °FPassing clouds.6 mph40%29.77 "HgN/A
5:30 PM82 °FPassing clouds.6 mph37%29.77 "HgN/A
5:00 PM82 °FPassing clouds.6 mph40%29.80 "HgN/A
4:30 PM84 °FPassing clouds.6 mph37%29.80 "HgN/A
4:00 PM82 °FScattered clouds.8 mph40%29.80 "HgN/A
3:30 PM82 °FScattered clouds.8 mph42%29.80 "HgN/A
3:00 PM81 °FScattered clouds.8 mph42%29.80 "HgN/A
2:30 PM81 °FScattered clouds.8 mph45%29.80 "HgN/A
2:00 PM81 °FScattered clouds.13 mph45%29.80 "HgN/A
1:30 PM81 °FScattered clouds.13 mph45%29.83 "HgN/A
1:00 PM81 °FPassing clouds.13 mph48%29.83 "HgN/A
12:30 PM79 °FScattered clouds.15 mph51%29.83 "HgN/A
12:00 PM79 °FScattered clouds.13 mph48%29.83 "HgN/A
11:30 AM79 °FBroken clouds.3 mph54%29.83 "HgN/A
11:00 AM77 °FSprinkles. More clouds than sun.1 mph54%29.83 "HgN/A
10:30 AM77 °FSprinkles. More clouds than sun.8 mph51%29.83 "HgN/A
10:00 AM77 °FSprinkles. More clouds than sun.8 mph57%29.83 "HgN/A
9:30 AM81 °FSprinkles. Mostly cloudy.10 mph42%29.80 "HgN/A
8:30 AM77 °FPartly sunny.1 mph47%29.77 "Hg6 mi
8:00 AM77 °FPartly sunny.1 mph51%29.74 "HgN/A
7:30 AM77 °FBroken clouds.6 mph54%29.74 "Hg6 mi
7:00 AM75 °FOvercast.1 mph61%29.71 "Hg5 mi
6:30 AM75 °FPartly sunny.6 mph57%29.71 "HgN/A
6:00 AM75 °FPartly sunny.1 mph54%29.68 "HgN/A
5:30 AM77 °FPartly sunny.3 mph44%29.65 "HgN/A
5:00 AM77 °FSprinkles. Passing clouds.3 mph51%29.65 "HgN/A
4:30 AM77 °FPassing clouds.3 mph51%29.65 "HgN/A
4:00 AM75 °FPassing clouds.3 mph54%29.62 "HgN/A
3:30 AM75 °FPassing clouds.No wind54%29.62 "HgN/A
3:00 AM73 °FPassing clouds.6 mph57%29.62 "HgN/A
Weather by CustomWeather, © 2015

See weather overviewHow to use our weather pages